Location: Unspecified
(0.0000°N, 0.0000°E)
Time: 18:30:59
(UTC+00:00)

COSMOS 2401 - Pass Details

Date: 02 March 2021
Orbit: 1467 x 1500 km, 82.5° (Epoch: 11 April)

Event Time Altitude Azimuth Distance (km) Brightness Sun altitude
Rises 18:25:55 0° 155° (SSE) 4,578 9.8 -3.4°
Reaches altitude 10° 18:29:38 10° 141° (SE) 3,598 9.1 -4.4°
Maximum altitude 18:35:57 23° 93° (E) 2,742 8.3 -5.9°
Drops below altitude 10° 18:42:13 10° 46° (NE) 3,601 9.0 -7.5°
Sets 18:45:52 0° 32° (NNE) 4,583 9.6 -8.4°
